Wilton, MN

3:43 AM CST on February 10, 2016 (GMT -0600)
Bemidji-Beltrami County

Weather History for KBJI - March, 2014

Change the Weather History Date:

Wednesday, March 5, 2014

  Actual Average Record
Temperature  
Mean Temperature 6 °F -  
Max Temperature 23 °F - - ()
Min Temperature -10 °F - - ()
Degree Days  
Heating Degree Days 58    
Moisture  
Dew Point 0 °F    
Average Humidity 66    
Maximum Humidity 77    
Minimum Humidity 51    
Precipitation  
Precipitation 0.00 in - - ()
Sea Level Pressure  
Sea Level Pressure 30.27 in    
Wind  
Wind Speed 8 mph (SSE)    
Max Wind Speed 22 mph    
Max Gust Speed 29 mph    
Visibility 10 miles    
Events      
T = Trace of Precipitation, MM = Missing Value Source: NWS Daily Summary

Daily Weather History Graph

Daily Weather History Graph

Search for Another Location

Airport or City:

Trip Planner

Search our weather history database for the weather conditions in past years. The results will help you decide how hot, cold, wet, or windy it might be!

Date:

Astronomy

Mar. 05, 2014 Rise Set
Actual Time 6:52 AM CST 6:10 PM CST
Civil Twilight 6:21 AM CST 6:41 PM CST
Nautical Twilight 5:46 AM CST 7:17 PM CST
Astronomical Twilight 5:10 AM CST 7:53 PM CST
Moon 8:57 AM CST (3/5) 11:43 PM CST (3/5)
Length of Visible Light 12h 19m
Length of Day
11h 18m
Waxing Crescent, 23% of the Moon is Illuminated
Mar 5
Waxing Crescent
Mar 8
First Quarter
Mar 16
Full
Mar 23
Last Quarter
Mar 30
New

Hourly Weather History & Observations

Time (CST) Temp. Windchill Dew Point Humidity Pressure Visibility Wind Dir Wind Speed Gust Speed Precip Events Conditions
12:09 AM -9.6 °F -21.1 °F -15.2 °F 76% 30.30 in 10.0 mi East 4.6 mph - N/A   Clear
12:29 AM -10.3 °F -19.6 °F -16.4 °F 74% 30.30 in 10.0 mi East 3.5 mph - N/A   Clear
12:49 AM -7.6 °F - -15.0 °F 70% 30.30 in 10.0 mi Calm Calm - N/A   Scattered Clouds
1:09 AM -6.3 °F - -13.7 °F 70% 30.30 in 10.0 mi Calm Calm - N/A   Clear
1:29 AM -7.4 °F - -13.7 °F 74% 30.30 in 10.0 mi Calm Calm - N/A   Clear
1:49 AM -7.6 °F -16.5 °F -13.4 °F 76% 30.29 in 10.0 mi ENE 3.5 mph - N/A   Scattered Clouds
2:09 AM -8.0 °F - -14.3 °F 74% 30.30 in 10.0 mi Calm Calm - N/A   Scattered Clouds
2:29 AM -7.8 °F -16.7 °F -14.8 °F 71% 30.30 in 10.0 mi East 3.5 mph - N/A   Scattered Clouds
2:49 AM -6.3 °F - -12.5 °F 75% 30.30 in 10.0 mi Calm Calm - N/A   Scattered Clouds
3:09 AM -7.2 °F - -16.2 °F 65% 30.31 in 10.0 mi Calm Calm - N/A   Clear
3:29 AM -9.6 °F - -15.2 °F 76% 30.31 in 10.0 mi Calm Calm - N/A   Clear
3:48 AM -5.6 °F - -11.0 °F 77% 30.31 in 10.0 mi Calm Calm - N/A   Clear
4:09 AM -6.5 °F - -12.5 °F 75% 30.31 in 10.0 mi Calm Calm - N/A   Scattered Clouds
4:29 AM -5.8 °F -14.5 °F -11.2 °F 77% 30.32 in 10.0 mi ESE 3.5 mph - N/A   Scattered Clouds
4:48 AM -2.4 °F - -8.0 °F 77% 30.33 in 10.0 mi Calm Calm - N/A   Mostly Cloudy
5:09 AM 0.9 °F -6.9 °F -7.6 °F 68% 30.34 in 10.0 mi East 3.5 mph - N/A   Overcast
5:29 AM 1.0 °F -6.7 °F -6.3 °F 71% 30.34 in 10.0 mi SE 3.5 mph - N/A   Overcast
5:49 AM 3.2 °F -7.8 °F -5.1 °F 68% 30.35 in 10.0 mi SE 5.8 mph - N/A   Overcast
6:09 AM 3.2 °F -7.8 °F -4.9 °F 69% 30.35 in 10.0 mi SE 5.8 mph - N/A   Overcast
6:29 AM 3.6 °F -5.7 °F -3.6 °F 72% 30.36 in 10.0 mi SE 4.6 mph - N/A   Overcast
6:48 AM 3.9 °F -5.3 °F -3.8 °F 70% 30.37 in 10.0 mi ESE 4.6 mph - N/A   Overcast
7:09 AM 4.1 °F -8.0 °F -3.5 °F 71% 30.38 in 10.0 mi SE 6.9 mph - N/A   Overcast
7:29 AM 4.3 °F -7.8 °F -3.3 °F 71% 30.38 in 10.0 mi SE 6.9 mph - N/A   Overcast
7:49 AM 4.8 °F -8.3 °F -3.3 °F 69% 30.38 in 10.0 mi SE 8.1 mph - N/A   Overcast
8:09 AM 5.5 °F -7.4 °F -2.4 °F 70% 30.38 in 10.0 mi SE 8.1 mph - N/A   Overcast
8:29 AM 5.9 °F -10.5 °F -1.8 °F 70% 30.37 in 10.0 mi SE 12.7 mph - N/A   Overcast
8:49 AM 7.0 °F -7.5 °F -1.5 °F 68% 30.38 in 10.0 mi SE 10.4 mph - N/A   Overcast
9:09 AM 7.7 °F -6.6 °F -1.3 °F 67% 30.39 in 10.0 mi SSE 10.4 mph - N/A   Overcast
9:29 AM 8.6 °F -8.3 °F -0.9 °F 65% 30.37 in 10.0 mi SE 15.0 mph - N/A   Overcast
9:49 AM 9.0 °F -7.9 °F -1.3 °F 63% 30.36 in 10.0 mi SE 15.0 mph - N/A   Overcast
10:09 AM 10.0 °F -5.2 °F -0.8 °F 62% 30.37 in 10.0 mi SE 12.7 mph - N/A   Overcast
10:29 AM 10.6 °F -4.5 °F -0.6 °F 61% 30.37 in 10.0 mi SE 12.7 mph - N/A   Overcast
10:49 AM 11.3 °F -5.5 °F -0.4 °F 59% 30.36 in 10.0 mi SE 16.1 mph - N/A   Overcast
11:09 AM 12.6 °F -3.3 °F 0.5 °F 59% 30.36 in 10.0 mi SE 15.0 mph - N/A   Overcast
11:29 AM 13.3 °F -0.5 °F 1.2 °F 59% 30.35 in 10.0 mi SE 11.5 mph - N/A   Overcast
11:48 AM 14.5 °F 0.5 °F 2.3 °F 58% 30.34 in 10.0 mi SE 12.7 mph - N/A   Overcast
12:09 PM 15.6 °F 1.2 °F 3.0 °F 58% 30.33 in 10.0 mi SE 13.8 mph - N/A   Overcast
12:29 PM 17.8 °F 3.4 °F 4.6 °F 57% 30.32 in 10.0 mi SE 15.0 mph - N/A   Overcast
12:48 PM 18.5 °F 4.9 °F 4.6 °F 55% 30.31 in 10.0 mi SE 13.8 mph - N/A   Mostly Cloudy
1:09 PM 19.2 °F 5.8 °F 5.5 °F 55% 30.29 in 10.0 mi SE 13.8 mph - N/A   Scattered Clouds
1:29 PM 21.2 °F 8.3 °F 7.7 °F 56% 30.28 in 10.0 mi SSE 13.8 mph 20.7 mph N/A   Clear
1:49 PM 21.6 °F 7.8 °F 7.9 °F 56% 30.27 in 10.0 mi SSE 16.1 mph - N/A   Mostly Cloudy
2:09 PM 22.6 °F 9.2 °F 8.2 °F 54% 30.27 in 10.0 mi South 16.1 mph 23.0 mph N/A   Mostly Cloudy
2:29 PM 22.8 °F 10.9 °F 7.0 °F 51% 30.26 in 10.0 mi SSE 12.7 mph 19.6 mph N/A   Mostly Cloudy
2:48 PM 22.8 °F 9.9 °F 7.2 °F 51% 30.26 in 10.0 mi South 15.0 mph 19.6 mph N/A   Mostly Cloudy
3:09 PM 23.0 °F 9.6 °F 7.5 °F 52% 30.25 in 10.0 mi SSE 16.1 mph 21.9 mph N/A   Overcast
3:29 PM 22.6 °F 8.7 °F 7.7 °F 53% 30.24 in 10.0 mi SSE 17.3 mph - N/A   Scattered Clouds
3:48 PM 22.5 °F 10.5 °F 8.1 °F 54% 30.23 in 10.0 mi SSE 12.7 mph 19.6 mph N/A   Clear
4:09 PM 23.5 °F 10.8 °F 8.2 °F 52% 30.21 in 10.0 mi SSE 15.0 mph 20.7 mph N/A   Clear
4:29 PM 23.0 °F 9.2 °F 8.6 °F 54% 30.21 in 10.0 mi SSE 17.3 mph 24.2 mph N/A   Clear
4:48 PM 22.6 °F 7.9 °F 7.9 °F 53% 30.19 in 10.0 mi SSE 19.6 mph 23.0 mph N/A   Clear
5:09 PM 22.5 °F 8.9 °F 8.4 °F 55% 30.18 in 10.0 mi SSE 16.1 mph - N/A   Clear
5:29 PM 21.2 °F 6.0 °F 8.6 °F 58% 30.17 in 10.0 mi SSE 19.6 mph 26.5 mph N/A   Clear
5:48 PM 20.3 °F 5.7 °F 8.2 °F 60% 30.17 in 10.0 mi SSE 17.3 mph 21.9 mph N/A   Clear
6:09 PM 19.9 °F 5.7 °F 8.2 °F 61% 30.16 in 7.0 mi SSE 16.1 mph 26.5 mph N/A   Clear
6:29 PM 19.2 °F 5.8 °F 7.7 °F 61% 30.17 in 10.0 mi South 13.8 mph 25.3 mph N/A   Clear
6:49 PM 19.0 °F 2.7 °F 7.5 °F 61% 30.17 in 10.0 mi South 20.7 mph 25.3 mph N/A   Clear
7:09 PM 18.5 °F 3.8 °F 7.7 °F 63% 30.18 in 10.0 mi South 16.1 mph 20.7 mph N/A   Scattered Clouds
7:29 PM 17.6 °F 3.7 °F 7.7 °F 65% 30.17 in 10.0 mi South 13.8 mph - N/A   Scattered Clouds
7:48 PM 17.2 °F 3.9 °F 7.7 °F 66% 30.17 in 10.0 mi South 12.7 mph 18.4 mph N/A   Scattered Clouds
8:09 PM 17.1 °F 3.0 °F 7.7 °F 67% 30.16 in 10.0 mi South 13.8 mph 21.9 mph N/A   Scattered Clouds
8:29 PM 16.7 °F 3.8 °F 7.7 °F 68% 30.17 in 10.0 mi South 11.5 mph 23.0 mph N/A   Scattered Clouds
8:48 PM 17.2 °F 1.2 °F 8.2 °F 68% 30.17 in 10.0 mi South 18.4 mph 24.2 mph N/A   Mostly Cloudy
9:09 PM 17.1 °F 1.5 °F 8.6 °F 69% 30.15 in 10.0 mi South 17.3 mph 23.0 mph N/A   Mostly Cloudy
9:29 PM 17.1 °F 1.5 °F 8.8 °F 70% 30.13 in 7.0 mi South 17.3 mph 28.8 mph N/A   Mostly Cloudy
9:49 PM 16.7 °F 0.5 °F 8.6 °F 70% 30.13 in 7.0 mi South 18.4 mph 26.5 mph N/A   Mostly Cloudy
10:09 PM 16.3 °F 1.6 °F 8.2 °F 70% 30.12 in 10.0 mi South 15.0 mph 25.3 mph N/A   Overcast
10:29 PM 15.8 °F -1.9 °F 8.6 °F 73% 30.12 in 7.0 mi South 21.9 mph 26.5 mph N/A   Mostly Cloudy
10:49 PM 15.8 °F 0.3 °F 9.1 °F 75% 30.12 in 10.0 mi South 16.1 mph 23.0 mph N/A   Overcast
11:09 PM 16.2 °F 1.3 °F 9.5 °F 75% 30.11 in 10.0 mi South 15.0 mph 24.2 mph N/A   Overcast
11:29 PM 15.8 °F 0.9 °F 9.5 °F 76% 30.10 in 10.0 mi South 15.0 mph 24.2 mph N/A   Overcast
11:48 PM 15.4 °F 0.4 °F 9.5 °F 77% 30.09 in 10.0 mi South 15.0 mph 20.7 mph N/A   Mostly Cloudy